When you browse on this site, cookies collect data to enhance your experience and personalize the content and advertising you see.
Visit our Privacy Policy to learn more. By continuing to use the site, you agree to this use of cookies and data.

Hourly Weather Golyn

Today, 9 August, Sunday

Time Temperature Precipitation Wind Pressure Humidity
00:00 +20°C° 0 mm 1 mps 752 mmHg 90%
01:00 +19°C° 0 mm 1 mps 752 mmHg 91%
02:00 +19°C° 0 mm 1 mps 752 mmHg 92%
03:00 +19°C° 0 mm 1 mps 752 mmHg 93%
04:00 +19°C° 0 mm 1 mps 752 mmHg 93%
05:00 +18°C° 0 mm 1 mps 752 mmHg 93%
06:00 +20°C° 0 mm 1 mps 752 mmHg 89%
07:00 +21°C° 0 mm 1 mps 752 mmHg 84%
08:00 +23°C° 0 mm 1 mps 752 mmHg 79%
09:00 +24°C° 0.1 mm 1 mps 752 mmHg 73%
10:00 +25°C° 0.1 mm 1 mps 752 mmHg 68%
11:00 +27°C° 0.1 mm 1 mps 752 mmHg 62%
12:00 +27°C° 0 mm 1 mps 751 mmHg 59%
13:00 +28°C° 0 mm 1 mps 751 mmHg 57%
14:00 +28°C° 0 mm 1 mps 751 mmHg 55%
15:00 +28°C° 0.5 mm 1 mps 751 mmHg 59%
16:00 +27°C° 0.5 mm 2 mps 750 mmHg 64%
17:00 +26°C° 0.5 mm 2 mps 750 mmHg 68%
18:00 +25°C° 0.3 mm 2 mps 750 mmHg 74%
19:00 +23°C° 0.3 mm 1 mps 750 mmHg 80%
20:00 +22°C° 0.3 mm 1 mps 750 mmHg 86%
21:00 +21°C° 0 mm 1 mps 750 mmHg 88%
22:00 +20°C° 0 mm 1 mps 750 mmHg 89%
23:00 +20°C° 0 mm 1 mps 750 mmHg 91%

Tomorrow, 10 August, Monday

Time Temperature Precipitation Wind Pressure Humidity
00:00 +19°C° 0.1 mm 1 mps 750 mmHg 92%
01:00 +19°C° 0.1 mm 1 mps 750 mmHg 92%
02:00 +19°C° 0.1 mm 1 mps 750 mmHg 93%
03:00 +18°C° 0.2 mm 1 mps 750 mmHg 93%
04:00 +18°C° 0.2 mm 1 mps 750 mmHg 93%
05:00 +18°C° 0.2 mm 1 mps 750 mmHg 94%
06:00 +19°C° 0 mm 1 mps 750 mmHg 90%
07:00 +21°C° 0 mm 1 mps 750 mmHg 86%
08:00 +22°C° 0 mm 1 mps 750 mmHg 82%
09:00 +24°C° 0.3 mm 1 mps 750 mmHg 75%
10:00 +25°C° 0.3 mm 2 mps 750 mmHg 69%
11:00 +27°C° 0.3 mm 2 mps 750 mmHg 62%
12:00 +27°C° 0.4 mm 2 mps 750 mmHg 59%
13:00 +28°C° 0.4 mm 2 mps 750 mmHg 57%
14:00 +28°C° 0.4 mm 3 mps 750 mmHg 54%
15:00 +28°C° 0.2 mm 2 mps 749 mmHg 55%
16:00 +28°C° 0.2 mm 2 mps 749 mmHg 57%
17:00 +28°C° 0.2 mm 2 mps 749 mmHg 58%
18:00 +26°C° 0.2 mm 2 mps 749 mmHg 66%
19:00 +24°C° 0.2 mm 2 mps 749 mmHg 74%
20:00 +21°C° 0.2 mm 2 mps 749 mmHg 82%
21:00 +20°C° 0 mm 2 mps 749 mmHg 84%
22:00 +19°C° 0 mm 2 mps 750 mmHg 86%
23:00 +19°C° 0 mm 2 mps 750 mmHg 88%

Day after tomorrow, 11 August, Tuesday

Time Temperature Precipitation Wind Pressure Humidity
00:00 +18°C° 0 mm 2 mps 750 mmHg 88%
01:00 +19°C° 0 mm 1 mps 750 mmHg 89%
02:00 +18°C° 0 mm 1 mps 750 mmHg 89%
03:00 +18°C° 0 mm 1 mps 750 mmHg 90%
04:00 +18°C° 0 mm 1 mps 750 mmHg 92%
05:00 +16°C° 0 mm 2 mps 750 mmHg 93%
06:00 +17°C° 0 mm 2 mps 750 mmHg 90%
07:00 +18°C° 0 mm 2 mps 750 mmHg 86%
08:00 +19°C° 0 mm 3 mps 750 mmHg 83%
09:00 +21°C° 0 mm 3 mps 750 mmHg 76%
10:00 +22°C° 0 mm 3 mps 751 mmHg 69%
11:00 +23°C° 0 mm 4 mps 751 mmHg 62%
12:00 +23°C° 0 mm 4 mps 751 mmHg 59%
13:00 +23°C° 0 mm 4 mps 751 mmHg 57%
14:00 +25°C° 0 mm 4 mps 751 mmHg 54%
15:00 +23°C° 0 mm 4 mps 751 mmHg 56%
16:00 +22°C° 0 mm 4 mps 751 mmHg 58%
17:00 +22°C° 0 mm 4 mps 751 mmHg 59%
18:00 +20°C° 0 mm 4 mps 751 mmHg 65%
19:00 +18°C° 0 mm 3 mps 751 mmHg 71%
20:00 +16°C° 0 mm 3 mps 751 mmHg 76%
21:00 +16°C° 0 mm 3 mps 751 mmHg 78%
22:00 +15°C° 0 mm 2 mps 752 mmHg 80%
23:00 +14°C° 0 mm 2 mps 752 mmHg 82%

12 August, Wednesday

Time Temperature Precipitation Wind Pressure Humidity
00:00 +13°C° 0 mm 2 mps 752 mmHg 84%
01:00 +12°C° 0 mm 2 mps 752 mmHg 87%
02:00 +12°C° 0 mm 2 mps 752 mmHg 89%
03:00 +10°C° 0 mm 2 mps 753 mmHg 90%
04:00 +10°C° 0 mm 2 mps 753 mmHg 92%
05:00 +10°C° 0 mm 2 mps 753 mmHg 93%
06:00 +12°C° 0 mm 2 mps 753 mmHg 86%
07:00 +14°C° 0 mm 2 mps 753 mmHg 79%
08:00 +15°C° 0 mm 2 mps 753 mmHg 72%
09:00 +17°C° 0 mm 2 mps 753 mmHg 66%
10:00 +18°C° 0 mm 3 mps 753 mmHg 60%
11:00 +19°C° 0 mm 3 mps 754 mmHg 54%
12:00 +19°C° 0 mm 3 mps 753 mmHg 55%
13:00 +19°C° 0 mm 3 mps 753 mmHg 56%
14:00 +19°C° 0 mm 3 mps 753 mmHg 56%
15:00 +19°C° 0 mm 3 mps 753 mmHg 57%
16:00 +19°C° 0 mm 2 mps 753 mmHg 57%
17:00 +19°C° 0 mm 2 mps 753 mmHg 58%
18:00 +17°C° 0 mm 2 mps 753 mmHg 65%
19:00 +15°C° 0 mm 1 mps 753 mmHg 71%
20:00 +13°C° 0 mm 0 mps 753 mmHg 78%
21:00 +12°C° 0 mm 0 mps 753 mmHg 79%
22:00 +12°C° 0 mm 0 mps 753 mmHg 81%
23:00 +11°C° 0 mm 0 mps 753 mmHg 82%

13 August, Thursday

Time Temperature Precipitation Wind Pressure Humidity
00:00 +11°C° 0 mm 0 mps 753 mmHg 84%
01:00 +10°C° 0 mm 0 mps 753 mmHg 85%
02:00 +10°C° 0 mm 0 mps 753 mmHg 87%
03:00 +10°C° 0 mm 0 mps 753 mmHg 87%
04:00 +9°C° 0 mm 0 mps 753 mmHg 88%
05:00 +9°C° 0 mm 0 mps 753 mmHg 89%
06:00 +11°C° 0 mm 0 mps 753 mmHg 83%
07:00 +13°C° 0 mm 0 mps 753 mmHg 76%
08:00 +15°C° 0 mm 0 mps 752 mmHg 70%
09:00 +18°C° 0 mm 1 mps 752 mmHg 65%
10:00 +20°C° 0 mm 1 mps 752 mmHg 61%
11:00 +21°C° 0 mm 1 mps 752 mmHg 56%
12:00 +21°C° 0 mm 1 mps 752 mmHg 56%
13:00 +21°C° 0 mm 1 mps 752 mmHg 56%
14:00 +21°C° 0 mm 1 mps 751 mmHg 56%
15:00 +21°C° 0 mm 1 mps 751 mmHg 57%
16:00 +20°C° 0 mm 2 mps 751 mmHg 59%
17:00 +20°C° 0 mm 2 mps 751 mmHg 60%
18:00 +20°C° 0 mm 1 mps 751 mmHg 66%
19:00 +18°C° 0 mm 1 mps 750 mmHg 73%
20:00 +15°C° 0 mm 1 mps 750 mmHg 80%
21:00 +15°C° 0 mm 1 mps 750 mmHg 81%
22:00 +14°C° 0 mm 1 mps 750 mmHg 82%
23:00 +14°C° 0 mm 1 mps 750 mmHg 84%

14 August, Friday

Time Temperature Precipitation Wind Pressure Humidity
00:00 +13°C° 0 mm 1 mps 750 mmHg 85%
01:00 +13°C° 0 mm 1 mps 750 mmHg 86%
02:00 +12°C° 0 mm 1 mps 750 mmHg 87%
03:00 +12°C° 0 mm 1 mps 750 mmHg 88%
04:00 +12°C° 0 mm 1 mps 750 mmHg 89%
05:00 +12°C° 0 mm 1 mps 750 mmHg 90%
06:00 +13°C° 0 mm 1 mps 750 mmHg 84%
07:00 +15°C° 0 mm 1 mps 750 mmHg 79%
08:00 +18°C° 0 mm 1 mps 750 mmHg 73%
09:00 +19°C° 0 mm 1 mps 750 mmHg 69%
10:00 +20°C° 0 mm 2 mps 750 mmHg 64%
11:00 +23°C° 0 mm 2 mps 750 mmHg 60%
12:00 +23°C° 0 mm 2 mps 750 mmHg 57%
13:00 +24°C° 0 mm 3 mps 750 mmHg 55%
14:00 +25°C° 0 mm 3 mps 750 mmHg 52%
15:00 +25°C° 0 mm 3 mps 749 mmHg 54%
16:00 +25°C° 0 mm 3 mps 749 mmHg 55%
17:00 +25°C° 0 mm 2 mps 749 mmHg 56%
18:00 +23°C° 0 mm 2 mps 749 mmHg 64%
19:00 +20°C° 0 mm 2 mps 749 mmHg 71%
20:00 +18°C° 0 mm 2 mps 749 mmHg 79%
21:00 +18°C° 0 mm 2 mps 749 mmHg 80%
22:00 +17°C° 0 mm 2 mps 749 mmHg 82%
23:00 +16°C° 0 mm 2 mps 749 mmHg 84%
Show more